Regional Weather Roundup
Issued by NWS

Home | Current Version | Previous Version | Graphics & Text | Print | Product List | Glossary On
Versions: 1 2 3 4 5 6 7 8 9 10 11 12 13 14 15 16 17 18 19 20 21 22 23 24 25 26 27 28 29 30 31 32 33 34 35 36 37 38 39 40 41 42 43 44 45 46 47 48 49 50
000
ASUS43 KFSD 221510
RWRSD

WEATHER ROUNDUP FOR SOUTH DAKOTA
NATIONAL WEATHER SERVICE SIOUX FALLS SD
1000 AM CDT TUE JUL 22 2014

NOTE: "FAIR" INDICATES FEW OR NO CLOUDS BELOW 12,000 FEET WITH NO
SIGNIFICANT WEATHER AND/OR OBSTRUCTIONS TO VISIBILITY.


SDZ001>005-009-010-012>017-221600-
NORTHWEST AND NORTH CENTRAL SOUTH DAKOTA

CITY           SKY/WX    TMP DP  RH WIND       PRES   REMARKS
BUFFALO          N/A     71  60  68 SE7       30.15S
FAITH            N/A     70  62  76 E7        30.19S
MOBRIDGE       PTSUNNY   69  63  81 N10       30.15S
$$

SDZ012>016-024>037-041>051-057-063-072>074-221600-
SOUTHWEST AND SOUTH CENTRAL SOUTH DAKOTA

CITY           SKY/WX    TMP DP  RH WIND       PRES   REMARKS
RAPID CTY ARPT SUNNY     73  65  75 N7        30.22S
PIERRE         CLOUDY    67  63  87 N18       30.12F
CUSTER         MOSUNNY   72  52  49 VRB3      30.34S
ELLSWORTH AFB  SUNNY     73  64  73 N3        30.22S
PHILIP         SUNNY     74  63  68 N9        30.17R
PINE RIDGE     SUNNY     73  63  70 VRB3      30.21S
WINNER         FAIR      71  65  81 NE10      30.10S
$$

SDZ004>011-016>023-039-040-221600-
NORTHEAST SOUTH DAKOTA

CITY           SKY/WX    TMP DP  RH WIND       PRES   REMARKS
ABERDEEN       SUNNY     72  62  71 N18       30.13R
WATERTOWN      MOSUNNY   73  61  65 N22       30.09R
SISSETON         N/A     71  62  73 N17       30.08S
$$

SDZ017-020-022-023-036>040-048>070-221600-
SOUTHEAST SOUTH DAKOTA

CITY           SKY/WX    TMP DP  RH WIND       PRES   REMARKS
SIOUX FALLS    MOSUNNY   76  66  71 N12       30.06R
HURON          MOSUNNY   72  64  76 N16       30.09R
CHAMBERLAIN    CLOUDY    67  63  86 NE7       30.12F
MITCHELL       PTSUNNY   74  66  76 N17       30.10R
YANKTON        PTSUNNY   73  64  73 NW14      30.05S
$$

ABBREVIATIONS USED IN REMARKS
   TC - TEMPERATURE IN CELSIUS
  WCI - WIND CHILL INDEX
   HX - HEAT INDEX
  VSB - VISIBILITY




USA.gov is the U.S. government's official web portal to all federal, state and local government web resources and services.